Location: Jihlava
(49.4000°N, 15.5830°E)
Time: 04:23:30
(UTC+01:00)

ISS - Visible Passes

Search period start: 19 February 2019 00:00
Search period end: 01 March 2019 00:00
Orbit: 403 x 411 km, 51.6° (Epoch: 19 February)

Date Brightness Start Highest point End Pass type
(mag) Time Alt. Az. Time Alt. Az. Time Alt. Az.
24 Feb -1.0 05:43:33 10° S 05:45:45 17° SE 05:47:57 10° E visible
25 Feb -0.7 04:53:55 10° SE 04:54:29 10° SE 04:55:02 10° SE visible
26 Feb -2.2 05:35:59 10° SSW 05:38:56 32° SSE 05:41:54 10° E visible
27 Feb -1.7 04:46:29 18° S 04:47:33 21° SE 04:50:05 10° E visible
28 Feb -0.7 03:57:12 12° ESE 03:57:12 12° ESE 03:57:48 10° ESE visible
28 Feb -3.4 05:29:55 17° SW 05:32:12 60° SSE 05:35:27 10° ENE visible
